千帆星座-115(QIANFAN-115)

基本信息
目录编号:
68642
目录名称:
QIANFAN-115
国际标识:
2026-075G
轨道中心:
EARTH
卫星名称:
千帆星座-115
卫星全名:
千帆星座-115(QIANFAN-115)
卫星状态:
在轨 (已飞行10 天)
发射日期:
2026-04-07 UTC
国别 :
中国 (CN)
星等 :
--
轨道信息
数据来源 国际轨道数据
星历时间: 2026-04-17T06:31:44+0800
12小时前
查看轨道信息
半长轴: 7190.712km
偏心率: 0.0014987
轨道倾角: 88.992°
近地点辐角 182.498°
升交点赤经 327.632°
平近点角 177.614°
近地点: 801.798km
远地点: 823.352km
周期: 101.139分钟
每日圈数: 14.237869
详细信息
卫星平台:
115
覆盖范围:
全球
运营商:
上海垣信卫星科技有限公司
运营商所在国:
中国
使用方式:
暂无
卫星简介
千帆星座,也被称为“G60星链”计划,是中国版“星链”的重要组成部分,旨在打造一个由1.4万多颗低轨宽频多媒体卫星构成的庞大星座。千帆星座计划由上海垣信卫星科技有限公司负责实施,于2023年启动建设。该项目是我国第二个低轨卫星大星座,旨在通过构建庞大的卫星网络,为全球用户提供高质量的通信和宽带互联网服务。
2D轨道图
3D轨道图
轨道高度分析图
轨道倾角分析图
轨道综合分析图
查看轨道综合分析图